Weather History for DeKalb, IL

Change the Weather History Date:

Monday, November 12, 2012

  Actual Average (KARR) Record (KARR)
Temperature  
Mean Temperature 30 °F 40 °F  
Max Temperature 35 °F 50 °F 65 °F (2007)
Min Temperature 26 °F 30 °F 18 °F (2013)
Degree Days  
Heating Degree Days 34 25  
Month to date heating degree days 269  
Since 1 July heating degree days 876  
Cooling Degree Days 0 0  
Month to date cooling degree days 0  
Year to date cooling degree days 655  
Moisture  
Dew Point 24 °F    
Average Humidity 75    
Maximum Humidity 90    
Minimum Humidity 63    
Precipitation  
Precipitation 0.00 in 0.10 in 0.29 in (2005)
Month to date precipitation 1.39  
Year to date precipitation 33.15  
Sea Level Pressure  
Sea Level Pressure 30.14 in    
Wind  
Wind Speed 17 mph (West)    
Max Wind Speed 25 mph    
Max Gust Speed 33 mph    
Visibility 10 miles    
Events Snow    
T = Trace of Precipitation, MM = Missing Value Source: NWS Daily Summary

Daily Weather History Graph

Daily Weather History Graph

Search for Another Location

Airport:

Trip Planner

Search our weather history database for the weather conditions in past years. The results will help you decide how hot, cold, wet, or windy it might be!

Date:

Astronomy

Nov. 12, 2012 Rise Set
Actual Time 6:41 AM CST 4:36 PM CST
Civil Twilight 6:11 AM CST 5:05 PM CST
Nautical Twilight 5:38 AM CST 5:39 PM CST
Astronomical Twilight 5:05 AM CST 6:12 PM CST
Moon 5:05 AM CST (11/12) 3:41 PM CST (11/12)
Length of Visible Light 10h 54m
Length of Day
9h 54m
Waning Crescent, 2% of the Moon is Illuminated
Nov 12
Waning Crescent
Nov 13
New
Nov 20
First Quarter
Nov 28
Full
Dec 6
Last Quarter

Hourly Weather History & Observations

Time (CST) Temp. Windchill Dew Point Humidity Pressure Visibility Wind Dir Wind Speed Gust Speed Precip Events Conditions
12:15 AM 35.6 °F 26.2 °F 32.4 °F 88% 29.96 in 7.0 mi West 15.0 mph 21.9 mph N/A   Overcast
12:35 AM 35.6 °F 27.5 °F 32.7 °F 89% 29.97 in 7.0 mi West 11.5 mph 17.3 mph N/A   Overcast
12:55 AM 35.1 °F 25.2 °F 32.0 °F 89% 29.97 in 7.0 mi West 16.1 mph 23.0 mph N/A   Overcast
1:15 AM 34.3 °F 24.6 °F 31.6 °F 90% 29.96 in 10.0 mi West 15.0 mph 21.9 mph N/A   Overcast
1:35 AM 34.0 °F 24.2 °F 31.1 °F 89% 29.98 in 10.0 mi West 15.0 mph - N/A   Overcast
1:55 AM 34.0 °F 24.2 °F 30.9 °F 89% 29.99 in 10.0 mi West 15.0 mph 27.6 mph N/A   Overcast
2:15 AM 33.1 °F 21.9 °F 29.1 °F 85% 29.99 in 10.0 mi West 18.4 mph - N/A   Overcast
2:35 AM 32.5 °F 21.2 °F 28.0 °F 83% 29.99 in 10.0 mi West 18.4 mph 25.3 mph N/A   Overcast
2:55 AM 32.5 °F 21.9 °F 28.8 °F 86% 30.02 in 10.0 mi West 16.1 mph - N/A   Overcast
3:15 AM 32.5 °F 21.9 °F 27.9 °F 83% 30.01 in 10.0 mi West 16.1 mph 25.3 mph N/A   Overcast
3:35 AM 31.8 °F 19.6 °F 26.2 °F 80% 30.00 in 10.0 mi West 20.7 mph 27.6 mph N/A   Overcast
3:55 AM 31.5 °F 19.8 °F 25.7 °F 79% 30.01 in 10.0 mi West 18.4 mph 28.8 mph N/A   Overcast
4:15 AM 31.6 °F 20.4 °F 26.4 °F 81% 30.01 in 10.0 mi West 17.3 mph 27.6 mph N/A   Overcast
4:35 AM 31.5 °F 21.8 °F 25.7 °F 79% 30.02 in 10.0 mi West 12.7 mph 23.0 mph N/A   Overcast
4:55 AM 31.1 °F 21.4 °F 26.1 °F 82% 30.03 in 10.0 mi West 12.7 mph 21.9 mph N/A   Overcast
5:15 AM 30.6 °F 19.4 °F 25.0 °F 80% 30.03 in 10.0 mi West 16.1 mph 21.9 mph N/A   Overcast
5:35 AM 30.2 °F 19.3 °F 24.6 °F 80% 30.04 in 10.0 mi West 15.0 mph 23.0 mph N/A   Overcast
6:15 AM 28.6 °F 18.2 °F 23.0 °F 80% 30.05 in 10.0 mi West 12.7 mph 19.6 mph N/A   Scattered Clouds
6:35 AM 28.4 °F 16.2 °F 23.0 °F 80% 30.07 in 10.0 mi West 17.3 mph 24.2 mph N/A   Mostly Cloudy
6:55 AM 27.3 °F 15.6 °F 22.1 °F 81% 30.07 in 10.0 mi West 15.0 mph 21.9 mph N/A   Scattered Clouds
7:15 AM 26.6 °F 13.1 °F 20.7 °F 78% 30.08 in 10.0 mi West 19.6 mph 24.2 mph N/A   Clear
7:35 AM 27.1 °F 15.9 °F 21.6 °F 80% 30.09 in 10.0 mi West 13.8 mph 21.9 mph N/A   Clear
7:55 AM 27.3 °F 13.6 °F 21.7 °F 80% 30.09 in 10.0 mi West 20.7 mph 26.5 mph N/A   Clear
8:15 AM 27.3 °F 14.0 °F 21.6 °F 79% 30.11 in 10.0 mi WSW 19.6 mph 23.0 mph N/A   Scattered Clouds
8:35 AM 27.1 °F 13.1 °F 20.8 °F 77% 30.11 in 10.0 mi West 21.9 mph 28.8 mph N/A   Mostly Cloudy
8:55 AM 27.1 °F 13.1 °F 20.3 °F 75% 30.11 in 10.0 mi West 21.9 mph 28.8 mph N/A   Scattered Clouds
9:15 AM 27.9 °F 14.7 °F 20.3 °F 73% 30.12 in 10.0 mi West 19.6 mph 29.9 mph N/A   Scattered Clouds
9:35 AM 28.8 °F 16.2 °F 21.0 °F 73% 30.12 in 10.0 mi West 18.4 mph 25.3 mph N/A   Scattered Clouds
9:55 AM 29.1 °F 16.0 °F 21.2 °F 72% 30.11 in 10.0 mi West 20.7 mph 27.6 mph N/A   Scattered Clouds
10:15 AM 30.0 °F 17.5 °F 22.3 °F 73% 30.13 in 10.0 mi West 19.6 mph 27.6 mph N/A   Scattered Clouds
10:35 AM 28.9 °F 14.5 °F 21.2 °F 73% 30.13 in 10.0 mi West 25.3 mph 29.9 mph N/A   Mostly Cloudy
10:55 AM 30.0 °F 16.6 °F 21.7 °F 71% 30.13 in 10.0 mi West 23.0 mph - N/A   Scattered Clouds
11:15 AM 30.7 °F 19.2 °F 21.4 °F 68% 30.12 in 10.0 mi WSW 17.3 mph 25.3 mph N/A   Scattered Clouds
11:35 AM 31.5 °F 19.1 °F 21.4 °F 66% 30.12 in 10.0 mi WSW 20.7 mph 26.5 mph N/A   Scattered Clouds
11:55 AM 32.0 °F 19.5 °F 21.4 °F 65% 30.12 in 10.0 mi WSW 21.9 mph 27.6 mph N/A   Scattered Clouds
12:15 PM 31.5 °F 19.8 °F 21.6 °F 67% 30.12 in 10.0 mi WSW 18.4 mph 27.6 mph N/A   Clear
12:35 PM 32.7 °F 20.7 °F 23.5 °F 69% 30.11 in 10.0 mi WSW 20.7 mph 28.8 mph N/A   Scattered Clouds
12:55 PM 32.0 °F 20.1 °F 22.1 °F 67% 30.11 in 10.0 mi WSW 19.6 mph 28.8 mph N/A   Scattered Clouds
1:15 PM 32.4 °F 19.7 °F 22.5 °F 67% 30.12 in 10.0 mi WSW 23.0 mph 28.8 mph N/A   Scattered Clouds
1:35 PM 33.3 °F 21.5 °F 21.7 °F 63% 30.12 in 10.0 mi West 20.7 mph 28.8 mph N/A   Mostly Cloudy
1:55 PM 32.9 °F 20.7 °F 21.9 °F 64% 30.13 in 10.0 mi West 21.9 mph 29.9 mph N/A   Mostly Cloudy
2:15 PM 33.3 °F 22.1 °F 22.5 °F 65% 30.13 in 10.0 mi WSW 18.4 mph 28.8 mph N/A   Overcast
2:35 PM 33.8 °F 22.2 °F 23.0 °F 65% 30.13 in 10.0 mi WSW 20.7 mph 33.4 mph N/A   Overcast
2:55 PM 32.9 °F 22.0 °F 21.7 °F 64% 30.14 in 10.0 mi West 17.3 mph 28.8 mph N/A   Mostly Cloudy
3:15 PM 33.4 °F 22.3 °F 22.8 °F 65% 30.15 in 10.0 mi WSW 18.4 mph 25.3 mph N/A   Overcast
3:35 PM 33.3 °F 20.9 °F 22.3 °F 64% 30.16 in 10.0 mi West 23.0 mph 29.9 mph N/A   Overcast
4:15 PM 33.8 °F 23.5 °F 23.0 °F 65% 30.18 in 10.0 mi West 16.1 mph 26.5 mph N/A   Overcast
4:35 PM 32.9 °F 21.6 °F 23.7 °F 69% 30.19 in 10.0 mi West 18.4 mph 25.3 mph N/A   Overcast
5:15 PM 32.9 °F 21.3 °F 23.4 °F 68% 30.21 in 10.0 mi West 19.6 mph - N/A   Overcast
5:35 PM 32.9 °F 22.8 °F 23.7 °F 69% 30.22 in 10.0 mi West 15.0 mph 21.9 mph N/A   Overcast
5:55 PM 32.9 °F 22.0 °F 23.7 °F 69% 30.23 in 10.0 mi West 17.3 mph 24.2 mph N/A   Overcast
6:15 PM 32.9 °F 22.0 °F 23.5 °F 68% 30.23 in 10.0 mi West 17.3 mph 23.0 mph N/A   Overcast
6:35 PM 33.8 °F 22.5 °F 23.0 °F 65% 30.24 in 10.0 mi WSW 19.6 mph 24.2 mph N/A   Overcast
6:55 PM 32.9 °F 23.2 °F 23.7 °F 69% 30.24 in 10.0 mi West 13.8 mph 23.0 mph N/A   Overcast
7:15 PM 32.9 °F 22.8 °F 24.3 °F 71% 30.24 in 10.0 mi West 15.0 mph 19.6 mph N/A   Overcast
7:35 PM 32.9 °F 22.8 °F 24.6 °F 72% 30.24 in 10.0 mi WSW 15.0 mph 20.7 mph N/A   Overcast
7:55 PM 32.9 °F 23.7 °F 24.8 °F 72% 30.25 in 10.0 mi WSW 12.7 mph - N/A   Overcast
8:15 PM 32.9 °F 22.8 °F 24.8 °F 72% 30.25 in 10.0 mi WSW 15.0 mph 20.7 mph N/A   Overcast
8:35 PM 32.9 °F 23.7 °F 25.0 °F 73% 30.26 in 10.0 mi WSW 12.7 mph 19.6 mph N/A   Overcast
8:55 PM 33.1 °F 21.5 °F 24.3 °F 70% 30.26 in 10.0 mi West 19.6 mph 24.2 mph N/A   Overcast
9:15 PM 33.1 °F 21.2 °F 24.4 °F 71% 30.27 in 10.0 mi West 20.7 mph 25.3 mph N/A Snow Light Snow
9:35 PM 30.7 °F 21.4 °F 26.6 °F 85% 30.29 in 3.0 mi WNW 11.5 mph - N/A Snow Light Snow
9:55 PM 30.6 °F 20.2 °F 26.1 °F 83% 30.30 in 10.0 mi WNW 13.8 mph 19.6 mph N/A   Overcast
10:15 PM 30.2 °F 18.9 °F 24.6 °F 80% 30.31 in 10.0 mi WNW 16.1 mph 20.7 mph N/A   Scattered Clouds
10:35 PM 29.7 °F 19.6 °F 23.0 °F 76% 30.32 in 10.0 mi WNW 12.7 mph 20.7 mph N/A   Clear
10:55 PM 29.1 °F 18.9 °F 22.6 °F 77% 30.33 in 10.0 mi WNW 12.7 mph - N/A   Clear
11:15 PM 28.4 °F 17.5 °F 22.1 °F 77% 30.33 in 10.0 mi WNW 13.8 mph 18.4 mph N/A   Clear
11:35 PM 28.2 °F 17.2 °F 21.2 °F 75% 30.34 in 10.0 mi WNW 13.8 mph 20.7 mph N/A   Clear
11:55 PM 27.7 °F 18.8 °F 21.2 °F 77% 30.34 in 10.0 mi WNW 9.2 mph - N/A   Clear